PulseSat

PulseSat

MOLNIYA 1-63

Last updated on Dec. 9, 2018, 12:08 a.m. UTC

1 15429U 84124A   18341.43786828  .00001162  00000-0  00000-0 0  9993
2 15429  63.8979 292.4398 6817165 270.0725 325.8815  2.00461719248915
UTC
Height (km)
Latitude
Longitude
Inclination
Orbital Period

Next 30 passes for location: Hong Kong

Rise time Rise Azimuth (degrees) Set time Set Azimuth (degrees) Duration Max altitude (degrees)

No matching passes for this satellites

PulseSat

PulseSat is the new satellites software and hardware trackering solution by Pulsely.
Satellite Two Line Element Set source: US Air Force Space Command

Download PulseSat for iOS
© 2017 Pulsely Limited